Location: Church Tower
(37.7144°N, 119.6316°W)
Time: 20:37:25
(UTC+00:00)

Meteor 2-16 Rocket - Pass Details

Date: 15 November 2025
Orbit: 942 x 955 km, 82.6° (Epoch: 08 December)

Event Time Altitude Azimuth Distance (km) Brightness Sun altitude
Exits shadow 12:31:39 56° 305° (NW) 1,124 4.5 -25.2°
Drops below altitude 10° 12:37:04 10° 359° (N) 2,683 6.7 -24.1°
Sets 12:39:38 0° 3° (N) 3,634 7.5 -23.6°
